Вернуться в каталог

SL-14 DEB

АктивенPO
NORAD 19226·DEBRIS·🇷🇺 Russia

Запущен Oct 26, 1978 с Plesetsk Cosmodrome

Loading…

Ближайшие Пролёты (ближайшие 24 часа)

TLE

СвежийSource: Space-Track

Эпоха: Sep 14, 2026, 14:12 UTC

1 19226U 78100V   26257.59234177 -.00000001  00000-0 -12131-3 0  9990
2 19226  82.5296 299.6348 0047547  63.0517  92.1205 12.00849478676892

Отслеживайте SL-14 DEB в реальном времени с AllMySat

Download on the App Store